031019 300  0.4+  0.5+    040713 379  0.2+  0.2+    060104 H45  1.1+  0.3-  

031019 360  0.2-  0.4-    040713 379  0.7+  0.3+    060104 H45  1.9+  0.0   

031019 360  0.1-  0.4-    040713 213  0.0   0.4+    060104 H45  2.0+  0.2-  

031019 349  0.1+  0.0     040713 213  0.0   0.6+    060104 H45  1.6+  0.2-  

031019 349  0.4+  0.5-    040713 213  0.0   0.3+    060106 204  1.8+  0.7+  

031019 300  1.1+  0.2+    040713 939  0.2-  0.3+    060106 204  1.1+  0.7+  

031020 H41  0.3+  0.0     040713 939  0.0   0.3+    060107 703  0.2-  0.4+  

031020 H41  0.1+  0.2+    040713 939  0.1+  0.3+    060107 703  0.7+  1.5+  

031020 442  0.2+  0.0     040713 619  1.1-  0.2+    060107 703  0.1+  1.3+  

031020 442  0.2+  0.0     040713 619  1.8-  0.2+    060107 703  0.0   0.7+  

031021 H41  0.3+  0.1+    040713 619  1.8-  0.1-    060108 467  1.6+  0.9+  

031021 H41  0.1+  0.0     040714 H41  0.0   0.6-    060108 467  1.8+  0.4+  

031022 704  1.0+  0.8+    040714 H41  0.5-  0.3-    060108 467  1.8+  0.3+  

031022 704  1.0+  0.5+    040714 H41  0.3-  0.0     060109 A18 (2.8-  2.0+) 

031022 704  0.6+  0.1+    040714 H41  0.3-  0.1-    060111 J76  1.8+  1.3+  

031022 704  0.9+  0.5+    040714 H41  0.2-  0.0     060111 J76  0.8+  1.5+  

031022 704 (2.2+  0.6-)   040714 379  0.9-  0.1+    060111 J76  0.6+  1.1+  

031023 H72  0.5-  1.1+    040714 379  0.3-  0.2-    060112 J76  1.0-  0.1+  

031023 H72  1.0+  0.4+    040714 379  0.6+  0.8+    060112 J76  0.7+  1.1+  

031023 H72  2.0+  0.2+    040714 379  1.0-  0.6-    060112 J76  0.7+  0.7+  

031023 H72  0.5+  0.5+    040714 J76  0.9-  1.1+    060114 232  1.4+  0.6+  

031023 A18  0.6+  0.4-    040714 J76  0.6-  0.7+    060114 232  1.3+  0.6+  

031023 J97  0.9+  1.0-    040714 J76  0.3-  0.3+    060114 232  1.6+  0.3+  

031023 J97  0.9-  0.6-    040714 939  0.2-  0.7+    060119 442  1.7+  0.5+  

031023 J97  0.0   0.3-    040714 939  0.2-  0.7+    060119 442  1.6+  0.8+  

031023 J97  0.9-  0.0     040714 204  0.0   0.1-    060119 442  1.6+  0.8+  

031023 442  0.6-  0.1+    040714 939  0.2-  0.7+    060120 939  1.4+  0.5+  

031023 442  0.8-  0.2+    040714 204  0.1-  0.1-    060120 939  1.7+  1.2+  

031023 J97  0.1-  0.6+    040714 204  0.0   0.1-    060120 939 (2.4+  2.2+) 

031024 H41  0.1+  0.1-    040715 379  0.3+  0.3-    060121 918  2.0+  0.7+  

031024 H41  0.1+  0.1-    040715 379  0.5+  0.4-    060121 918  1.1+  0.0   

031024 347  1.2+  0.4-    040715 379  0.3-  0.2-    060121 918 (2.2+  0.3+) 

031024 347  0.1-  0.2+    040715 379  0.2+  0.3-    060121 918  1.3+  0.9+  

031024 445  0.7+  0.3+    040715 379  0.1-  0.0     060121 918  1.6+  0.3+  

031024 A46  0.1+  0.1-    040715 379  0.5+  0.1+    060122 349  1.5+  1.6+  

031024 A46  0.1+  0.7-    040715 379  0.4+  0.2-    060122 349  1.7+  1.5+  

031024 445  1.9+  0.8+    040715 379  0.5+  0.5-    060122 442  0.7-  0.4+  

031024 A46  0.0   0.2+    040715 233  0.5-  0.6+    060122 442 (0.8+  2.4+) 

031024 A46  0.2-  0.7-    040715 233  0.2-  0.0     060123 215  1.9+  0.1-  

031024 445  1.7+  0.9+    040715 170  0.1-  0.2+    060123 215  1.2+  0.6+  

031024 A46  0.3+  0.6-    040715 233  0.7+  0.3-    060123 215  1.8+  1.3+  

031024 A46  0.1+  0.1+    040715 108  0.2+  0.8+    060125 H45  0.7+  0.7-  

031025 A41  0.5+  0.4-    040715 108  0.7+  0.4+    060125 H45  1.0+  1.5+  

031025 A41  0.8+  0.5+    040715 108  0.0   0.7+    060125 H45  0.2-  0.4+  

031025 A41  0.8+  0.2-    040715 233  0.6+  0.4-    060125 H45  0.9+  0.3+  

031027 H41  0.4+  0.5-    040715 108  0.4-  1.4+    060125 I77  0.2+  0.7+  

031027 H41  0.5+  0.3-    040715 A30  0.1-  0.2+    060125 I77  1.2+  0.6+  

031029 J97  1.0+  0.2+    040715 A30  0.1-  0.0     060125 I77  1.3+  0.0   

031029 J97  1.0+  0.2-    040715 A30  0.2-  0.1+    060128 D88  1.2+  1.0+  

031101 232  0.9+  0.2-    040715 A30  0.0   0.3+    060128 D88  0.9+  1.1+  

031101 232  0.7+  0.0     040715 442 (1.6-  3.0-)   060128 D88  1.4+  1.1+  

031101 232  0.5+  0.1+    040715 442  0.4-  1.0-    060129 A11  2.0+  1.4+  

031102 704  1.0+  1.1+    040715 A30  0.9+  1.0+    060129 A11  0.7+  1.0+  

031102 704 (2.5+  0.1+)   040715 442 (0.5-  3.7-)   060129 A11  1.6+  0.8+  

031102 704 (3.2+  0.7-)   040715 442  0.0   0.7-    060129 A18  2.1+  0.6+  

031102 704  1.6+  0.9-    040715 442  0.8-  1.8-    060201 J76  1.7+  0.1+  

031102 704  0.3-  1.5-    040715 442  0.7-  1.2-    060201 J76  1.8+  0.4+  

031103 213  1.0+  0.0     040715 170  0.5-  0.4-    060201 939  0.3+  1.6+  

031103 213  0.1-  0.2-    040716 213  0.3-  0.3+    060201 J76  1.2+  0.3+  

031103 213  0.9+  0.1-    040716 213  0.2-  0.2+    060201 939  0.4+  1.3+  

031104 A46  0.7+  0.1+    040716 213  0.4-  0.2+    060201 939  0.8+  0.7+  

031104 A46  0.0   0.3+    040716 A06  0.7-  0.2+    060206 J76  1.3+  1.2+  

031104 A46  0.4+  0.2-    040716 A06  0.7-  0.3+    060206 J76  1.5+  1.1+  

031104 A46  1.4+  0.1+    040716 A06  0.3-  0.6+    060206 J76  1.1+  0.8+  

031104 A46  1.2+  0.3-    040716 A06  0.1-  0.4+    060208 J97 (3.0+  0.1+) 

031104 A46  0.3+  0.1-    040716 215  0.3-  0.2+    060209 I05 (1.9+  2.5+) 

031108 A46  0.4+  0.3+    040716 215  0.3-  0.0     060209 I05  2.1+  0.5+  

031108 A46  0.3+  0.2-    040716 215  0.3-  0.1-    060212 D88  0.6+  1.1+  

031108 A46  0.4+  0.3+    040716 A18  0.2-  0.0     060212 D88  0.9+  0.8+  

031108 A46  0.4+  0.1+    040716 A18  0.4-  0.1+    060212 D88  0.6+  0.9+  

031108 A46  0.9+  0.1-    040716 A46  0.8-  0.4-    060217 J97  0.6+  0.4-  

031108 A46  0.2+  0.7-    040716 A46  1.0-  0.6-    060218 I05  1.8+  0.1+  

031113 H72  1.2+  0.4+    040716 A46  1.3-  0.7-    060218 I05  1.4+  0.5-  

031113 H72  1.6+  0.7+    040716 A46  1.1-  0.6-    060225 I05  1.0+  0.4+  

031113 H72  0.6+  0.6+    040716 A46  1.1-  0.2-    060804 349  0.9-  1.1+  

031113 H72  1.8+  0.1-    040716 A46  0.9-  0.6-    060809 349  0.1-  0.4+  

031114 900  0.5+  0.5-    040716 939  0.3-  0.7+    060809 349  0.4-  0.4+  

031114 900  1.0+  0.1+    040716 939  0.2-  0.8+    060901 215  0.5+  0.6-  

031117 360  0.1+  0.1+    040716 939  0.2-  0.9+    060918 703  1.2-  0.9+  

031117 360  0.2+  0.2+    040717 048  0.5-  0.3-    060918 703  0.4-  0.3-  

031123 900  0.2+  0.4+    040717 048  0.7-  0.3-    060918 703  0.4-  0.4-  

031123 900  0.5+  0.4+    040717 048  0.6-  0.4-    060918 703  0.6-  0.5+  

031123 349  0.5+  0.1+    040717 048  0.6-  0.4-    060920 349 (2.7+  2.3-) 

031123 349  0.4+  0.1+    040717 048  0.5-  0.3-    060927 349 (3.0+  3.6-) 

031123 349  0.6+  0.1-    040717 A46  1.2-  0.2-    060927 349 (3.5+  3.4-) 

031123 349  0.4+  0.1+    040717 A46  0.8-  0.4-    061020 415  0.6+  0.6-  

031127 H72  0.2-  0.4-    040717 A46  0.3-  0.2-    061029 J97 (5.0+  1.4+) 

031127 H72  0.2+  0.3-    040717 A46  0.4-  0.2-    061112 349 (4.3+  1.5-) 

031127 H72  1.4-  0.1-    040717 A46  0.6-  0.0     061112 349 (4.1+  1.9-) 

031127 J97  0.9+  0.1-    040717 A46  0.5-  0.3-    061114 568 (2.9+  0.1-) 

031127 J97  1.3+  0.2+    040717 939  0.2-  0.6+    061114 568 (3.3+  0.0 ) 

031127 J97  0.8+  0.5+    040717 939  0.2-  0.6+    061114 568 (3.7+  0.1+) 

031127 J97  1.1+  0.6+    040717 939  0.0   0.5+    061116 703 (2.2+  1.0+) 

031130 H72  0.7+  0.6+    040718 379  0.8-  0.3+    061116 703  0.3+  1.2+  

031130 H72  0.6+  0.2+    040718 379  1.2-  0.5-    061116 703  0.0   2.1+  

031130 H72  2.0+  0.2+    040718 160  0.5-  0.1-    061116 703  0.8+  0.8-  

031130 H72  1.6+  0.4+    040718 235  0.2-  0.0     061117 568 (3.9+  0.0 ) 

031206 349  0.9+  0.2-    040719 349  0.3-  0.0     061117 568 (3.9+  0.1+) 

031206 349  0.5+  0.0     040719 349  0.3-  0.0     061117 568 (3.6+  0.1+) 

031206 349  0.7+  0.2+    040719 349  0.3-  0.1-    061117 415 (2.6+  0.5+) 

031206 349  0.9+  0.3+    040719 349  0.2-  0.1+                            

NAKANO

         **** Don't distribute anyone except personal use only ****

                (C) Copyright 2007 OAA/ComputingSection

write mail from CFAD0::NAKANO on 2007-03-05 06:21:26(JST).

 





◎C/2003 K4の軌道です



  2004年10月に近日点を通過した彗星ですが,まだ,14等〜15等級で明るく観測され

ています.観測が多いのでResidual blocksから省きました.



    C/2003 K4 (LINEAR)

Epoch 2004 Oct. 2.0 TT = JDT 2453280.5  

T 2004 Oct. 13.71692 TT                                 Nakano

q   1.0236213            (2000.0)            P               Q

z  -0.0003012      Peri.  198.44071     -0.96938455     +0.08769287

 +/-0.0000006      Node    18.67548     +0.00328588     +0.93860307

e   1.0003083      Incl.  134.25275     -0.24552553     -0.33366786

From 3520 observations 2003 May 28-2006 Feb. 18, mean residual 0".61.

   Nongravitational parameters A1 = +0.74 +/- 0.02, A2 = -0.3414 +/- 0.0063.

   (1/a)org.= +0.000023, (1/a)fut.= -0.000142 (+/-0.000001), Q= 8.

NAKANO

         **** Don't distribute anyone except personal use only ****

                (C) Copyright 2006 OAA/ComputingSection

write mail from CFAD0::NAKANO on 2006-03-01 01:55:42(JST).

 



    C/2003 K4 (LINEAR)

Epoch 2004 Oct. 2.0 TT = JDT 2453280.5  

T 2004 Oct. 13.71699 TT                                 Nakano

q   1.0236210            (2000.0)            P               Q

z  -0.0002897      Peri.  198.44069     -0.96938485     +0.08769453

 +/-0.0000010      Node    18.67532     +0.00328795     +0.93860280

e   1.0002966      Incl.  134.25274     -0.24552435     -0.33366819

From 3177 observations 2003 May 28-2005 Oct. 10, mean residual 0".52.

   Nongravitational parameters A1 = +0.90 +/- 0.02, A2 = -0.5484 +/- 0.0076.

   (1/a)org.= +0.000018, (1/a)fut.= -0.000115 (+/-0.000001), Q= 8.

See residuals on http://www.oaa.gr.jp/~oaacs/nk/nk1238.htm



NAKANO

         **** Don't distribute anyone except personal use only ****

                (C) Copyright 2005 OAA/ComputingSection

write mail from CFAD0::NAKANO on 2005-11-03 23:34:28(JST).

 





    C/2003 K4 (LINEAR)                                                    

Epoch 2004 Oct. 2.0 TT = JDT 2453280.5  

